Tehachapi, CA

5:18 PM PDT on July 27, 2017 (GMT -0700)
Tehachapi Municipal

Weather History for KTSP - July, 2013

Change the Weather History Date:

Sunday, July 7, 2013

  Actual Average Record
Temperature  
Mean Temperature 76 °F -  
Max Temperature 91 °F 84 °F 91 °F (2013)
Min Temperature 62 °F 56 °F 50 °F (2012)
Cooling Degree Days 12    
Growing Degree Days 26 (Base 50)    
Moisture  
Dew Point 33 °F    
Average Humidity 22    
Maximum Humidity 45    
Minimum Humidity 9    
Precipitation  
Precipitation 0.00 in - - ()
Sea Level Pressure  
Sea Level Pressure 29.99 in    
Wind  
Wind Speed 7 mph (NW)    
Max Wind Speed 22 mph    
Max Gust Speed 29 mph    
Visibility 10 miles    
Events      
Averages and records for this station are not official NWS values.
T = Trace of Precipitation, MM = Missing Value Source: NWS Daily Summary

Daily Weather History Graph

Daily Weather History Graph

Search for Another Location

Airport or City:

Trip Planner

Search our weather history database for the weather conditions in past years. The results will help you decide how hot, cold, wet, or windy it might be!

Date:

Astronomy

Jul. 07, 2013 Rise Set
Actual Time 5:46 AM PDT 8:11 PM PDT
Civil Twilight 5:16 AM PDT 8:40 PM PDT
Nautical Twilight 4:40 AM PDT 9:16 PM PDT
Astronomical Twilight 4:00 AM PDT 9:56 PM PDT
Moon 5:24 AM PDT (7/7) 7:41 PM PDT (7/7)
Length of Visible Light 15h 23m
Length of Day
14h 24m
Waning Crescent, 0% of the Moon is Illuminated
Jul 7
Waning Crescent
Jul 8
New
Jul 15
First Quarter
Jul 22
Full
Jul 29
Last Quarter

Hourly Weather History & Observations

Time (PDT) Temp. Dew Point Humidity Pressure Visibility Wind Dir Wind Speed Gust Speed Precip Events Conditions
12:15 AM 68.0 °F 39.2 °F 35% 29.97 in 10.0 mi Calm Calm - N/A   Clear
12:35 AM 68.0 °F 39.2 °F 35% 29.97 in 10.0 mi Calm Calm - N/A   Clear
12:55 AM 66.2 °F 39.2 °F 37% 29.97 in 10.0 mi NNW 4.6 mph - N/A   Clear
1:15 AM 68.0 °F 39.2 °F 35% 29.96 in 10.0 mi North 4.6 mph - N/A   Clear
1:35 AM 64.4 °F 39.2 °F 40% 29.96 in 10.0 mi North 3.5 mph - N/A   Clear
1:55 AM 64.4 °F 37.4 °F 37% 29.96 in 10.0 mi North 3.5 mph - N/A   Clear
2:15 AM 64.4 °F 37.4 °F 37% 29.95 in 10.0 mi WNW 3.5 mph - N/A   Clear
2:35 AM 64.4 °F 41.0 °F 42% 29.95 in 10.0 mi West 5.8 mph - N/A   Clear
2:55 AM 62.6 °F 41.0 °F 45% 29.95 in 10.0 mi Calm Calm - N/A   Clear
3:15 AM 64.4 °F 39.2 °F 40% 29.95 in 10.0 mi Calm Calm - N/A   Clear
3:35 AM 64.4 °F 39.2 °F 40% 29.95 in 10.0 mi Calm Calm - N/A   Clear
3:55 AM 64.4 °F 39.2 °F 40% 29.95 in 10.0 mi Calm Calm - N/A   Clear
4:15 AM 64.4 °F 39.2 °F 40% 29.95 in 10.0 mi West 6.9 mph - N/A   Partly Cloudy
4:35 AM 64.4 °F 39.2 °F 40% 29.95 in 10.0 mi West 5.8 mph - N/A   Partly Cloudy
4:55 AM 64.4 °F 39.2 °F 40% 29.95 in 10.0 mi WSW 3.5 mph - N/A   Partly Cloudy
5:15 AM 66.2 °F 37.4 °F 35% 29.95 in 10.0 mi Calm Calm - N/A   Partly Cloudy
5:35 AM 64.4 °F 37.4 °F 37% 29.96 in 10.0 mi WSW 4.6 mph - N/A   Clear
5:55 AM 66.2 °F 33.8 °F 30% 29.96 in 10.0 mi West 3.5 mph - N/A   Partly Cloudy
6:15 AM 66.2 °F 33.8 °F 30% 29.97 in 10.0 mi West 4.6 mph - N/A   Partly Cloudy
6:35 AM 68.0 °F 28.4 °F 23% 29.97 in 10.0 mi WNW 4.6 mph - N/A   Clear
6:55 AM 69.8 °F 28.4 °F 21% 29.97 in 10.0 mi West 3.5 mph - N/A   Clear
7:15 AM 71.6 °F 30.2 °F 22% 29.98 in 10.0 mi Calm Calm - N/A   Clear
7:35 AM 75.2 °F 26.6 °F 17% 29.98 in 10.0 mi NW 8.1 mph - N/A   Clear
7:55 AM 77.0 °F 30.2 °F 18% 29.98 in 10.0 mi NW 9.2 mph - N/A   Clear
8:15 AM 80.6 °F 32.0 °F 17% 29.99 in 10.0 mi NW 9.2 mph - N/A   Clear
8:35 AM 80.6 °F 32.0 °F 17% 29.99 in 10.0 mi NW 8.1 mph - N/A   Clear
8:55 AM 82.4 °F 32.0 °F 16% 29.99 in 10.0 mi WNW 6.9 mph - N/A   Clear
9:15 AM 84.2 °F 32.0 °F 15% 29.99 in 10.0 mi WNW 12.7 mph - N/A   Clear
9:35 AM 84.2 °F 32.0 °F 15% 29.99 in 10.0 mi NW 11.5 mph - N/A   Clear
9:55 AM 86.0 °F 32.0 °F 14% 29.99 in 10.0 mi NNW 13.8 mph - N/A   Clear
10:15 AM 86.0 °F 30.2 °F 13% 29.99 in 10.0 mi NNW 13.8 mph 20.7 mph N/A   Clear
10:35 AM 86.0 °F 30.2 °F 13% 29.99 in 10.0 mi NW 15.0 mph 20.7 mph N/A   Clear
10:55 AM 87.8 °F 30.2 °F 13% 30.00 in 10.0 mi NW 15.0 mph 20.7 mph N/A   Clear
11:15 AM 87.8 °F 30.2 °F 13% 30.00 in 10.0 mi NW 12.7 mph 18.4 mph N/A   Clear
11:35 AM 89.6 °F 28.4 °F 11% 30.00 in 10.0 mi NW 11.5 mph 20.7 mph N/A   Clear
11:55 AM 89.6 °F 28.4 °F 11% 30.00 in 10.0 mi NW 13.8 mph 21.9 mph N/A   Clear
12:15 PM 89.6 °F 28.4 °F 11% 30.00 in 10.0 mi NW 13.8 mph 20.7 mph N/A   Clear
12:35 PM 91.4 °F 28.4 °F 10% 30.00 in 10.0 mi NNW 13.8 mph 20.7 mph N/A   Clear
12:55 PM 91.4 °F 28.4 °F 10% 29.99 in 10.0 mi NNW 16.1 mph 21.9 mph N/A   Clear
1:15 PM 91.4 °F 28.4 °F 10% 29.99 in 10.0 mi NW 16.1 mph 24.2 mph N/A   Clear
1:35 PM 91.4 °F 26.6 °F 10% 29.99 in 10.0 mi NW 19.6 mph 24.2 mph N/A   Clear
1:55 PM 91.4 °F 26.6 °F 10% 29.98 in 10.0 mi NNW 17.3 mph 25.3 mph N/A   Clear
2:15 PM 91.4 °F 24.8 °F 9% 29.98 in 10.0 mi NW 19.6 mph 26.5 mph N/A   Clear
2:35 PM 91.4 °F 28.4 °F 10% 29.98 in 10.0 mi NW 19.6 mph 26.5 mph N/A   Clear
2:55 PM 91.4 °F 28.4 °F 10% 29.98 in 10.0 mi NW 18.4 mph 27.6 mph N/A   Clear
3:15 PM 91.4 °F 32.0 °F 12% 29.98 in 10.0 mi NW 17.3 mph 24.2 mph N/A   Clear
3:35 PM 91.4 °F 32.0 °F 12% 29.98 in 10.0 mi NW 20.7 mph 26.5 mph N/A   Clear
3:55 PM 91.4 °F 32.0 °F 12% 29.98 in 10.0 mi NW 20.7 mph 28.8 mph N/A   Clear
4:15 PM 91.4 °F 32.0 °F 12% 29.98 in 10.0 mi NW 21.9 mph 26.5 mph N/A   Clear
4:35 PM 89.6 °F 35.6 °F 15% 29.98 in 10.0 mi NW 18.4 mph 25.3 mph N/A   Clear
4:55 PM 89.6 °F 33.8 °F 14% 29.97 in 10.0 mi NW 18.4 mph 25.3 mph N/A   Clear
5:15 PM 89.6 °F 35.6 °F 15% 29.97 in 10.0 mi WNW 19.6 mph 25.3 mph N/A   Clear
5:35 PM 89.6 °F 33.8 °F 14% 29.97 in 10.0 mi NW 17.3 mph 24.2 mph N/A   Clear
5:55 PM 87.8 °F 35.6 °F 16% 29.97 in 10.0 mi NW 17.3 mph 24.2 mph N/A   Clear
6:15 PM 87.8 °F 35.6 °F 16% 29.97 in 10.0 mi NW 19.6 mph - N/A   Clear
6:35 PM 86.0 °F 35.6 °F 17% 29.98 in 10.0 mi NW 16.1 mph - N/A   Clear
6:55 PM 86.0 °F 33.8 °F 15% 29.98 in 10.0 mi NW 18.4 mph 24.2 mph N/A   Clear
7:15 PM 84.2 °F 33.8 °F 16% 29.99 in 10.0 mi WNW 15.0 mph 20.7 mph N/A   Clear
7:35 PM 84.2 °F 32.0 °F 15% 29.99 in 10.0 mi WNW 17.3 mph 21.9 mph N/A   Clear
7:55 PM 82.4 °F 32.0 °F 16% 30.00 in 10.0 mi WNW 12.7 mph - N/A   Clear
8:15 PM 80.6 °F 32.0 °F 17% 30.00 in 10.0 mi WNW 10.4 mph 16.1 mph N/A   Clear
8:35 PM 80.6 °F 32.0 °F 17% 30.01 in 10.0 mi WNW 6.9 mph - N/A   Clear
8:55 PM 77.0 °F 35.6 °F 22% 30.01 in 10.0 mi West 5.8 mph - N/A   Clear
9:15 PM 75.2 °F 35.6 °F 24% 30.02 in 10.0 mi WNW 4.6 mph - N/A   Clear
9:35 PM 75.2 °F 33.8 °F 22% 30.03 in 10.0 mi WNW 5.8 mph - N/A   Clear
9:55 PM 73.4 °F 35.6 °F 25% 30.03 in 10.0 mi West 8.1 mph - N/A   Clear
10:15 PM 73.4 °F 33.8 °F 23% 30.04 in 10.0 mi NW 5.8 mph - N/A   Clear
10:35 PM 71.6 °F 32.0 °F 23% 30.04 in 10.0 mi Calm Calm - N/A   Clear
10:55 PM 69.8 °F 33.8 °F 27% 30.05 in 10.0 mi East 4.6 mph - N/A   Clear
11:15 PM 71.6 °F 33.8 °F 25% 30.05 in 10.0 mi Calm Calm - N/A   Clear
11:35 PM 69.8 °F 32.0 °F 25% 30.05 in 10.0 mi Calm Calm - N/A   Clear
11:55 PM 68.0 °F 32.0 °F 26% 30.05 in 10.0 mi Calm Calm - N/A   Clear